Location: Dalton
(34.7700°N, 84.9700°W)
Time: 08:58:25
(UTC-05:00)

Hubble Space Telescope - Pass Details

Date: 10 October 2017
Orbit: 538 x 541 km, 28.5° (Epoch: 11 December)

Event Time Altitude Azimuth Distance (km) Brightness Sun altitude
Exits shadow 05:08:47 11° 126° (SE) 1,714 3.7 -32.0°
Drops below altitude 10° 05:08:59 10° 125° (SE) 1,786 3.8 -31.9°
Sets 05:11:25 0° 115° (ESE) 2,677 5.0 -31.5°
